Rbgn^[z[y[W
メイン
   新天体発見情報
     Comet C/2021 U4 (Leonard)
投稿するにはまず登録を

フラット表示 前のトピック | 次のトピック
投稿者 スレッド
佐藤裕久
投稿日時: 2021-11-20 20:40
モデレータ
登録日: 2005-6-12
居住地: 日本
投稿: 2505
オンライン
Comet C/2021 U4 (Leonard)

G. J. Leonard (月惑星研究所:LPL, アリゾナ大学)の通報によると、彗星を発見したことを
小惑星センターへ報告した。
この彗星は、10月31.3日UT、Mt Lemmonの1.5-m 反射望遠鏡で得た30秒4枚の画像では、適度に
集光した15"のコマがあるが尾はない。
K. Wierzchos (月惑星研究所)が、10月31.35日、Mt LemmonにあるSteward天文台の1-m 反射望
遠鏡で得た、60秒4枚フィルターなしフォローアップ画像では、拡散した8" のコマが見えるが
尾はなかった。
MPEC 2021-V22に掲載されている観測データのうち、事前にLeonardの発見観測がMPCに報告され
た後に見つかった発見前の観測も含まれている。

彗星機能の報告は次のとおり、

OC   Date        Reporter           Coma    Tail    PA          Exposures
I52  2021-10-31  K. Wierzchos       8"                            4x60s
I52  2021-11-01  K. Wierzchos       8"                            3x90s

発見位置は次のとおり、

     2021 UT             R.A. (2000) Decl.       Mag.   Observer
     Oct. 24.31345    6 26 47.39   -11 28 40.7   19.2   Attard
          24.31935    6 26 47.06   -11 28 34.9   19.2     "
          24.32513    6 26 46.73   -11 28 28.5   19.3     "

MPCの楕円軌道要素、位置推算表は次のとおり

Orbital elements:
    C/2021 U4 (Leonard)                                                         
Epoch 2021 Dec. 12.0 TT = JDT 2459560.5                                         
T 2021 Dec. 21.84079 TT                                 Rudenko                 
q   1.7879451            (2000.0)            P               Q                  
z  +0.0208963      Peri.  237.23995     +0.91533468     +0.02730489             
 +/-0.0000000      Node   241.81332     +0.26569451     -0.79066820             
e   0.9626385      Incl.  152.88219     -0.30260346     -0.61163571             
From 26 observations 2021 Oct. 7-Nov. 1, mean residual 0".3.                    
                                                                                
    C/2021 U4 (Leonard)                                                         
Epoch 2021 July 5.0 TT = JDT 2459400.5                                          
T 2021 Dec. 21.83245 TT                                 Rudenko                 
q   1.7880157            (2000.0)            P               Q                  
z  +0.0209170      Peri.  237.23372     +0.91533570     +0.02739018             
 +/-0.0000000      Node   241.81241     +0.26576425     -0.79064149             
e   0.9626001      Incl.  152.88253     -0.30253913     -0.61166643             
From 26 observations 2021 Oct. 7-Nov. 1, mean residual 0".3.                    
                                                                                
Ephemeris:
Date    TT    R. A. (2000) Decl.     Delta      r    Elong.  Phase   m1
2021 10 03    04 58 22.7 +12 41 27   1.4167  2.0462   114.6    26.4  20.9
...
2021 10 18    04 01 57.8 +02 09 58   1.0816  1.9635   141.8    18.3  20.1
...
2021 10 26    03 15 54.8 -05 50 55   0.9812  1.9248   154.0    13.1  19.8
...
2021 11 01    02 35 15.0 -12 14 23   0.9586  1.8985   153.3    13.6  19.7
2021 11 02    02 28 11.0 -13 15 56   0.9596  1.8943   152.1    14.2  19.7
2021 11 03    02 21 05.0 -14 16 06   0.9619  1.8903   150.6    14.9  19.7
...
2021 11 09    01 38 51.4 -19 36 46   1.0032  1.8673   139.0    20.4  19.7
...
2021 11 17    00 48 16.4 -24 31 19   1.1192  1.8410   121.6    27.2  19.9
...
2021 12 02    23 42 36.7 -28 18 49   1.4449  1.8054    94.0    33.0  20.4

(MPEC 2021-V22、CBET 5065)

フラット表示 前のトピック | 次のトピック

題名 投稿者 日時
 » Comet C/2021 U4 (Leonard) 佐藤裕久 2021-11-20 20:40

投稿するにはまず登録を
 
© 1999 Tsutomu Seki.